| time (UTC) | temp F | wind direction | speed knots | gust knots | rain 1hr in | rain 24hr in | rain mn in | humidity % | barometer mb |
| 20260903075516 | 73 | 40 | 2.6 | 6.1 | 0.00 | 0.00 | 0.00 | 52 | 1024.1 |
| 20260903074517 | 72 | 48 | 3.5 | 7.8 | 0.00 | 0.00 | 0.00 | 53 | 1024.2 |
| 20260903073516 | 72 | 47 | 5.2 | 8.7 | 0.00 | 0.00 | 0.00 | 54 | 1024.2 |
| 20260903072517 | 71 | 48 | 4.3 | 7.8 | 0.00 | 0.00 | 0.00 | 54 | 1024.2 |
| 20260903071556 | 71 | 49 | 4.3 | 7.8 | 0.00 | 0.00 | 0.00 | 55 | 1024.3 |
| 20260903070556 | 70 | 46 | 4.3 | 7.8 | 0.00 | 0.00 | 0.00 | 55 | 1024.1 |
| 20260903065516 | 70 | 46 | 4.3 | 7.8 | 0.00 | 0.00 | 0.00 | 55 | 1024.1 |
| 20260903064516 | 70 | 45 | 2.6 | 7.0 | 0.00 | 0.00 | 0.00 | 56 | 1024.2 |
| 20260903063517 | 69 | 46 | 3.5 | 7.0 | 0.00 | 0.00 | 0.00 | 56 | 1024.1 |
| 20260903062517 | 69 | 42 | 3.5 | 7.0 | 0.00 | 0.00 | 0.00 | 56 | 1023.9 |
| 20260903061516 | 69 | 46 | 3.5 | 7.8 | 0.00 | 0.00 | 0.00 | 56 | 1023.9 |
| 20260903060516 | 69 | 45 | 4.3 | 7.8 | 0.00 | 0.00 | 0.00 | 55 | 1023.7 |
| 20260903055516 | 69 | 45 | 3.5 | 7.8 | 0.00 | 0.00 | 0.00 | 55 | 1023.7 |
| 20260903054516 | 69 | 49 | 4.3 | 8.7 | 0.00 | 0.00 | 0.00 | 54 | 1023.6 |
| 20260903053516 | 69 | 48 | 4.3 | 7.0 | 0.00 | 0.00 | 0.00 | 53 | 1023.4 |
| 20260903052556 | 69 | 57 | 2.6 | 7.0 | 0.00 | 0.00 | 0.00 | 53 | 1023.4 |
| 20260903051517 | 69 | 50 | 4.3 | 7.8 | 0.00 | 0.00 | 0.00 | 52 | 1023.3 |
| 20260903050516 | 69 | 48 | 4.3 | 7.0 | 0.00 | 0.00 | 0.00 | 51 | 1023.1 |
| 20260903045517 | 70 | 48 | 3.5 | 6.1 | 0.00 | 0.00 | 0.00 | 50 | 1023.3 |
| 20260903044517 | 70 | 51 | 3.5 | 6.1 | 0.00 | 0.00 | 0.00 | 49 | 1023.4 |
| 20260903043517 | 71 | 47 | 2.6 | 7.8 | 0.00 | 0.00 | 0.00 | 49 | 1023.4 |
| 20260903042516 | 71 | 48 | 2.6 | 5.2 | 0.00 | 0.00 | 0.00 | 49 | 1023.3 |
| 20260903041516 | 71 | 46 | 2.6 | 6.1 | 0.00 | 0.00 | 0.00 | 48 | 1023.2 |
| 20260903040517 | 71 | 42 | 3.5 | 5.2 | 0.00 | 0.00 | 0.00 | 47 | 1023.2 |
| 20260903035516 | 71 | 50 | 1.7 | 3.5 | 0.00 | 0.00 | 0.00 | 46 | 1023.3 |
| 20260903034517 | 71 | 59 | 1.7 | 5.2 | 0.00 | 0.00 | 0.00 | 45 | 1023.1 |
| 20260903033516 | 72 | 56 | 2.6 | 5.2 | 0.00 | 0.00 | 0.00 | 45 | 1023.1 |
| 20260903032516 | 72 | 46 | 4.3 | 7.0 | 0.00 | 0.00 | 0.00 | 44 | 1023.0 |
| 20260903031517 | 72 | 42 | 3.5 | 6.1 | 0.00 | 0.00 | 0.00 | 43 | 1023.1 |
| 20260903030517 | 73 | 46 | 4.3 | 7.0 | 0.00 | 0.00 | 0.00 | 42 | 1023.1 |
| 20260903025516 | 72 | 45 | 5.2 | 7.8 | 0.00 | 0.00 | 0.00 | 43 | 1023.0 |
| 20260903024517 | 72 | 43 | 4.3 | 7.8 | 0.00 | 0.00 | 0.00 | 42 | 1023.1 |
| 20260903023516 | 72 | 50 | 2.6 | 6.1 | 0.00 | 0.00 | 0.00 | 42 | 1023.1 |
| 20260903022516 | 72 | 44 | 3.5 | 6.1 | 0.00 | 0.00 | 0.00 | 42 | 1023.0 |
| 20260903021516 | 73 | 66 | 1.7 | 5.2 | 0.00 | 0.00 | 0.00 | 41 | 1023.0 |
| 20260903020516 | 74 | 68 | 4.3 | 9.6 | 0.00 | 0.00 | 0.00 | 40 | 1023.1 |
| 20260903015517 | 74 | 60 | 4.3 | 7.0 | 0.00 | 0.00 | 0.00 | 39 | 1023.0 |
| 20260903014517 | 75 | 54 | 3.5 | 7.8 | 0.00 | 0.00 | 0.00 | 38 | 1023.0 |
| 20260903013516 | 75 | 53 | 4.3 | 9.6 | 0.00 | 0.00 | 0.00 | 37 | 1023.0 |
| 20260903012516 | 76 | 49 | 5.2 | 10.4 | 0.00 | 0.00 | 0.00 | 37 | 1023.0 |
| 20260903011557 | 76 | 48 | 6.1 | 13.0 | 0.00 | 0.00 | 0.00 | 36 | 1022.9 |
| 20260903010517 | 76 | 48 | 7.0 | 11.3 | 0.00 | 0.00 | 0.00 | 36 | 1022.9 |
| 20260903005516 | 76 | 49 | 7.0 | 12.2 | 0.00 | 0.00 | 0.00 | 36 | 1022.7 |
| 20260903004517 | 76 | 47 | 5.2 | 8.7 | 0.00 | 0.00 | 0.00 | 37 | 1022.5 |
| 20260903003557 | 76 | 48 | 5.2 | 7.8 | 0.00 | 0.00 | 0.00 | 38 | 1022.5 |
| 20260903002517 | 76 | 47 | 4.3 | 7.0 | 0.00 | 0.00 | 0.00 | 39 | 1022.5 |
| 20260903001517 | 76 | 47 | 2.6 | 6.1 | 0.00 | 0.00 | 0.00 | 40 | 1022.5 |
| 20260903000517 | 76 | 44 | 2.6 | 4.3 | 0.00 | 0.00 | 0.00 | 39 | 1022.5 |
| 20260902235516 | 77 | 44 | 2.6 | 4.3 | 0.00 | 0.00 | 0.00 | 39 | 1022.4 |
| 20260902234516 | 77 | 46 | 2.6 | 5.2 | 0.00 | 0.00 | 0.00 | 38 | 1022.4 |
| 20260902233516 | 77 | 45 | 2.6 | 4.3 | 0.00 | 0.00 | 0.00 | 38 | 1022.3 |
| 20260902232517 | 76 | 51 | 1.7 | 4.3 | 0.00 | 0.00 | 0.00 | 39 | 1022.4 |
| 20260902231556 | 76 | 43 | 3.5 | 6.1 | 0.00 | 0.00 | 0.00 | 39 | 1022.2 |
| 20260902230516 | 78 | 46 | 4.3 | 7.0 | 0.00 | 0.00 | 0.00 | 36 | 1022.3 |
| 20260902225516 | 78 | 267 | 0.9 | 1.7 | 0.00 | 0.00 | 0.00 | 36 | 1022.1 |
| 20260902224516 | 78 | 0.0 | 0.0 | 0.00 | 0.00 | 0.00 | 37 | 1021.8 | |
| 20260902223516 | 78 | 0.0 | 0.0 | 0.00 | 0.00 | 0.00 | 36 | 1021.8 | |
| 20260902222516 | 79 | 0.0 | 0.0 | 0.00 | 0.00 | 0.00 | 36 | 1021.8 | |
| 20260902221556 | 79 | 0.0 | 0.0 | 0.00 | 0.00 | 0.00 | 35 | 1021.7 | |
| 20260902220516 | 80 | 0.0 | 0.9 | 0.00 | 0.00 | 0.00 | 34 | 1021.7 | |
| 20260902215516 | 80 | 267 | 0.9 | 0.9 | 0.00 | 0.00 | 0.00 | 33 | 1021.7 |
| 20260902214516 | 80 | 267 | 0.0 | 0.9 | 0.00 | 0.00 | 0.00 | 34 | 1021.5 |
| 20260902213516 | 80 | 267 | 0.9 | 0.9 | 0.00 | 0.00 | 0.00 | 34 | 1021.4 |
| 20260902212516 | 80 | 0.0 | 0.0 | 0.00 | 0.00 | 0.00 | 36 | 1021.4 | |
| 20260902211517 | 81 | 0.0 | 0.0 | 0.00 | 0.00 | 0.00 | 35 | 1021.4 | |
| 20260902210516 | 81 | 0.0 | 0.0 | 0.00 | 0.00 | 0.00 | 36 | 1021.4 | |
| 20260902205516 | 81 | 0.0 | 0.0 | 0.00 | 0.00 | 0.00 | 35 | 1021.3 | |
| 20260902204516 | 81 | 0.0 | 0.0 | 0.00 | 0.00 | 0.00 | 34 | 1021.0 | |
| 20260902203556 | 82 | 0.0 | 0.0 | 0.00 | 0.00 | 0.00 | 34 | 1021.1 | |
| 20260902202517 | 82 | 0.0 | 0.0 | 0.00 | 0.00 | 0.00 | 34 | 1021.0 | |
| 20260902201516 | 82 | 0.0 | 0.0 | 0.00 | 0.00 | 0.00 | 33 | 1020.7 | |
| 20260902200516 | 83 | 0.0 | 0.0 | 0.00 | 0.00 | 0.00 | 33 | 1020.8 | |
| 20260902195516 | 84 | 0.0 | 0.0 | 0.00 | 0.00 | 0.00 | 32 | 1020.6 | |
| 20260902194516 | 84 | 0.0 | 0.0 | 0.00 | 0.00 | 0.00 | 32 | 1020.3 | |
| 20260902193516 | 85 | 0.0 | 0.0 | 0.00 | 0.00 | 0.00 | 31 | 1020.3 | |
| 20260902192516 | 86 | 0.0 | 0.0 | 0.00 | 0.00 | 0.00 | 30 | 1020.2 | |
| 20260902191556 | 87 | 0.0 | 0.0 | 0.00 | 0.00 | 0.00 | 30 | 1020.2 | |
| 20260902190516 | 88 | 0.0 | 0.0 | 0.00 | 0.00 | 0.00 | 29 | 1020.1 | |
| 20260902185516 | 90 | 267 | 0.0 | 0.9 | 0.00 | 0.00 | 0.00 | 27 | 1020.2 |
| 20260902184516 | 91 | 267 | 0.0 | 1.7 | 0.00 | 0.00 | 0.00 | 25 | 1020.1 |
| 20260902183516 | 93 | 267 | 0.0 | 1.7 | 0.00 | 0.00 | 0.00 | 24 | 1020.1 |
| 20260902182516 | 94 | 267 | 1.7 | 4.3 | 0.00 | 0.00 | 0.00 | 23 | 1020.2 |
| 20260902181516 | 94 | 268 | 1.7 | 3.5 | 0.00 | 0.00 | 0.00 | 22 | 1020.2 |
| 20260902180516 | 95 | 259 | 1.7 | 3.5 | 0.00 | 0.00 | 0.00 | 21 | 1020.2 |
| 20260902175556 | 95 | 279 | 1.7 | 4.3 | 0.00 | 0.00 | 0.00 | 22 | 1020.2 |
| 20260902174516 | 96 | 264 | 1.7 | 4.3 | 0.00 | 0.00 | 0.00 | 22 | 1020.3 |
| 20260902173516 | 97 | 267 | 0.9 | 2.6 | 0.00 | 0.00 | 0.00 | 21 | 1020.4 |
| 20260902172516 | 96 | 0.0 | 1.7 | 0.00 | 0.00 | 0.00 | 22 | 1020.2 | |
| 20260902171516 | 96 | 287 | 1.7 | 4.3 | 0.00 | 0.00 | 0.00 | 22 | 1020.1 |
| 20260902170557 | 96 | 287 | 1.7 | 6.1 | 0.00 | 0.00 | 0.00 | 22 | 1020.2 |
| 20260902165517 | 96 | 285 | 2.6 | 5.2 | 0.00 | 0.00 | 0.00 | 22 | 1020.2 |
| 20260902164516 | 96 | 275 | 0.9 | 5.2 | 0.00 | 0.00 | 0.00 | 22 | 1020.4 |
| 20260902163516 | 97 | 264 | 1.7 | 5.2 | 0.00 | 0.00 | 0.00 | 22 | 1020.4 |
| 20260902162556 | 96 | 191 | 2.6 | 5.2 | 0.00 | 0.00 | 0.00 | 22 | 1020.5 |
| 20260902161556 | 96 | 278 | 2.6 | 7.0 | 0.00 | 0.00 | 0.00 | 22 | 1020.6 |
| 20260902160516 | 96 | 268 | 3.5 | 8.7 | 0.00 | 0.00 | 0.00 | 22 | 1020.6 |
| 20260902155516 | 96 | 244 | 3.5 | 7.8 | 0.00 | 0.00 | 0.00 | 22 | 1020.7 |
| 20260902154516 | 95 | 274 | 2.6 | 5.2 | 0.00 | 0.00 | 0.00 | 22 | 1020.7 |
| 20260902153516 | 95 | 348 | 2.6 | 7.0 | 0.00 | 0.00 | 0.00 | 23 | 1020.8 |
| 20260902152516 | 95 | 273 | 2.6 | 7.0 | 0.00 | 0.00 | 0.00 | 23 | 1020.8 |
| 20260902151517 | 95 | 316 | 1.7 | 6.1 | 0.00 | 0.00 | 0.00 | 23 | 1020.9 |
| 20260902150517 | 95 | 261 | 3.5 | 6.1 | 0.00 | 0.00 | 0.00 | 23 | 1021.0 |
| 20260902145516 | 94 | 267 | 3.5 | 7.0 | 0.00 | 0.00 | 0.00 | 23 | 1021.0 |
| 20260902144517 | 94 | 278 | 2.6 | 5.2 | 0.00 | 0.00 | 0.00 | 24 | 1021.1 |
| 20260902143516 | 95 | 276 | 3.5 | 7.0 | 0.00 | 0.00 | 0.00 | 24 | 1021.2 |
| 20260902142557 | 95 | 129 | 3.5 | 7.8 | 0.00 | 0.00 | 0.00 | 23 | 1021.2 |
| 20260902141516 | 94 | 266 | 1.7 | 6.1 | 0.00 | 0.00 | 0.00 | 24 | 1021.3 |
| 20260902140517 | 94 | 241 | 1.7 | 7.0 | 0.00 | 0.00 | 0.00 | 25 | 1021.5 |
| 20260902135517 | 94 | 278 | 2.6 | 5.2 | 0.00 | 0.00 | 0.00 | 25 | 1021.5 |
| 20260902134517 | 93 | 311 | 0.9 | 5.2 | 0.00 | 0.00 | 0.00 | 25 | 1021.5 |
| 20260902133516 | 94 | 308 | 3.5 | 5.2 | 0.00 | 0.00 | 0.00 | 24 | 1021.6 |
| 20260902132557 | 94 | 316 | 0.9 | 5.2 | 0.00 | 0.00 | 0.00 | 24 | 1021.7 |
| 20260902131517 | 93 | 264 | 2.6 | 6.1 | 0.00 | 0.00 | 0.00 | 25 | 1021.7 |
| 20260902130517 | 94 | 262 | 1.7 | 5.2 | 0.00 | 0.00 | 0.00 | 25 | 1021.9 |
| 20260902125557 | 93 | 218 | 0.9 | 4.3 | 0.00 | 0.00 | 0.00 | 25 | 1021.9 |
| 20260902124516 | 92 | 192 | 1.7 | 3.5 | 0.00 | 0.00 | 0.00 | 27 | 1022.2 |
| 20260902123516 | 93 | 264 | 1.7 | 3.5 | 0.00 | 0.00 | 0.00 | 28 | 1022.3 |
| 20260902122556 | 91 | 121 | 1.7 | 3.5 | 0.00 | 0.00 | 0.00 | 28 | 1022.2 |
| 20260902121517 | 90 | 112 | 3.5 | 6.1 | 0.00 | 0.00 | 0.00 | 29 | 1022.2 |
| 20260902120557 | 90 | 208 | 2.6 | 6.1 | 0.00 | 0.00 | 0.00 | 30 | 1022.3 |
| 20260902115516 | 89 | 266 | 0.9 | 4.3 | 0.00 | 0.00 | 0.00 | 26 | 1022.4 |
| 20260902114516 | 88 | 295 | 1.7 | 4.3 | 0.00 | 0.00 | 0.00 | 31 | 1022.6 |
| 20260902113516 | 88 | 294 | 1.7 | 5.2 | 0.00 | 0.00 | 0.00 | 32 | 1022.7 |
| 20260902112517 | 88 | 300 | 1.7 | 4.3 | 0.00 | 0.00 | 0.00 | 36 | 1022.8 |
| 20260902111516 | 88 | 245 | 0.9 | 2.6 | 0.00 | 0.00 | 0.00 | 39 | 1023.0 |
| 20260902110517 | 86 | 102 | 1.7 | 3.5 | 0.00 | 0.00 | 0.00 | 41 | 1023.0 |
| 20260902105557 | 85 | 277 | 0.9 | 4.3 | 0.00 | 0.00 | 0.00 | 43 | 1022.9 |
| 20260902104517 | 85 | 256 | 1.7 | 4.3 | 0.00 | 0.00 | 0.00 | 45 | 1023.1 |
| 20260902103517 | 84 | 282 | 1.7 | 3.5 | 0.00 | 0.00 | 0.00 | 47 | 1023.2 |
| 20260902102517 | 84 | 204 | 2.6 | 5.2 | 0.00 | 0.00 | 0.00 | 48 | 1023.2 |
| 20260902101517 | 83 | 261 | 0.9 | 3.5 | 0.00 | 0.00 | 0.00 | 51 | 1023.2 |
| 20260902100517 | 82 | 280 | 0.9 | 4.3 | 0.00 | 0.00 | 0.00 | 53 | 1023.1 |
| 20260902095557 | 81 | 254 | 0.9 | 4.3 | 0.00 | 0.00 | 0.00 | 55 | 1023.1 |
| 20260902094517 | 81 | 43 | 0.9 | 2.6 | 0.00 | 0.00 | 0.00 | 54 | 1023.3 |
| 20260902093517 | 81 | 211 | 1.7 | 3.5 | 0.00 | 0.00 | 0.00 | 54 | 1023.3 |
| 20260902092517 | 81 | 99 | 0.9 | 2.6 | 0.00 | 0.00 | 0.00 | 53 | 1023.2 |
| 20260902091516 | 79 | 123 | 0.9 | 2.6 | 0.00 | 0.00 | 0.00 | 55 | 1023.2 |
| 20260902090517 | 79 | 125 | 0.0 | 2.6 | 0.00 | 0.00 | 0.00 | 55 | 1023.1 |
| 20260902085517 | 77 | 69 | 0.9 | 2.6 | 0.00 | 0.00 | 0.00 | 57 | 1023.0 |
| 20260902084516 | 77 | 32 | 0.9 | 3.5 | 0.00 | 0.00 | 0.00 | 55 | 1023.1 |
| 20260902083517 | 76 | 61 | 0.9 | 2.6 | 0.00 | 0.00 | 0.00 | 57 | 1023.0 |
| 20260902082517 | 75 | 25 | 0.0 | 2.6 | 0.00 | 0.00 | 0.00 | 56 | 1022.9 |
| 20260902081517 | 75 | 70 | 0.9 | 2.6 | 0.00 | 0.00 | 0.00 | 55 | 1022.9 |
| 20260902080517 | 73 | 68 | 0.0 | 1.7 | 0.00 | 0.00 | 0.00 | 56 | 1022.8 |